Andrews, NC

4:47 PM EDT on March 30, 2017 (GMT -0400)
Andrews

Weather History for KRHP - November, 2014

Change the Weather History Date:

Sunday, November 23, 2014

  Actual Average (KMMI) Record (KMMI)
Temperature  
Mean Temperature 51 °F -  
Max Temperature 60 °F 56 °F 68 °F (2016)
Min Temperature 43 °F 32 °F 19 °F (2015)
Degree Days  
Heating Degree Days 14    
Growing Degree Days 1 (Base 50)    
Moisture  
Dew Point 50 °F    
Average Humidity 88    
Maximum Humidity 100    
Minimum Humidity 67    
Precipitation  
Precipitation 0.71 in - - ()
Sea Level Pressure  
Sea Level Pressure 29.91 in    
Wind  
Wind Speed 4 mph (SW)    
Max Wind Speed 20 mph    
Max Gust Speed 30 mph    
Visibility 9 miles    
Events Rain    
Averages and records for this station are not official NWS values.
T = Trace of Precipitation, MM = Missing Value Source: NWS Daily Summary

Daily Weather History Graph

Daily Weather History Graph

Search for Another Location

Airport or City:

Trip Planner

Search our weather history database for the weather conditions in past years. The results will help you decide how hot, cold, wet, or windy it might be!

Date:

Astronomy

Nov. 23, 2014 Rise Set
Actual Time 7:18 AM EST 5:25 PM EST
Civil Twilight 6:50 AM EST 5:52 PM EST
Nautical Twilight 6:19 AM EST 6:23 PM EST
Astronomical Twilight 5:49 AM EST 6:54 PM EST
Moon 8:13 AM EST (11/23) 6:47 PM EST (11/23)
Length of Visible Light 11h 02m
Length of Day
10h 07m
New Moon, 2% of the Moon is Illuminated
Nov 23
New Moon
Nov 29
First Quarter
Dec 6
Full
Dec 14
Last Quarter
Dec 21
New

Hourly Weather History & Observations

Time (EST) Temp. Windchill Dew Point Humidity Pressure Visibility Wind Dir Wind Speed Gust Speed Precip Events Conditions
12:15 AM 43.3 °F - 37.4 °F 80% 30.22 in 10.0 mi Calm Calm - N/A   Scattered Clouds
12:35 AM 43.9 °F 41.3 °F 37.4 °F 78% 30.21 in 10.0 mi SE 4.6 mph - N/A   Overcast
12:55 AM 45.3 °F 44.0 °F 38.8 °F 78% 30.20 in 10.0 mi ESE 3.5 mph - N/A   Overcast
1:15 AM 45.1 °F 43.7 °F 39.2 °F 80% 30.19 in 10.0 mi North 3.5 mph - N/A   Overcast
1:35 AM 46.6 °F - 39.4 °F 76% 30.19 in 10.0 mi Calm Calm - N/A   Overcast
1:55 AM 49.8 °F - 40.6 °F 71% 30.18 in 10.0 mi NW 6.9 mph - N/A   Overcast
2:15 AM 51.1 °F - 40.5 °F 67% 30.18 in 10.0 mi NNW 8.1 mph - N/A   Overcast
2:35 AM 51.6 °F - 40.8 °F 67% 30.18 in 10.0 mi NW 9.2 mph - N/A   Overcast
2:55 AM 53.2 °F - 42.8 °F 68% 30.17 in 10.0 mi NNW 4.6 mph - N/A   Overcast
3:15 AM 52.0 °F - 43.3 °F 72% 30.16 in 10.0 mi NNE 3.5 mph - N/A   Overcast
3:35 AM 51.8 °F - 42.8 °F 71% 30.16 in 10.0 mi Calm Calm - N/A   Overcast
3:55 AM 50.4 °F - 46.4 °F 86% 30.15 in 7.0 mi Calm Calm - 0.02 in Rain Light Rain
4:15 AM 48.0 °F - 46.0 °F 93% 30.15 in 10.0 mi Calm Calm - N/A   Overcast
4:35 AM 47.5 °F - 46.6 °F 97% 30.14 in 4.0 mi SSE 3.5 mph - 0.05 in Rain Rain
4:55 AM 47.3 °F - 46.8 °F 98% 30.13 in 10.0 mi East 3.5 mph - 0.06 in Rain Light Rain
5:15 AM 47.5 °F - 46.9 °F 98% 30.11 in 10.0 mi NE 4.6 mph - 0.01 in   Overcast
5:55 AM 47.8 °F - 46.6 °F 95% 30.11 in 10.0 mi SSE 3.5 mph - 0.01 in   Overcast
6:15 AM 47.5 °F - 46.9 °F 98% 30.10 in 7.0 mi East 4.6 mph - N/A Rain Light Rain
6:35 AM 47.3 °F - 46.8 °F 98% 30.09 in 10.0 mi Calm Calm - 0.01 in Rain Light Rain
6:55 AM 47.8 °F - 47.1 °F 97% 30.08 in 10.0 mi SSE 3.5 mph - 0.01 in   Light Drizzle
7:15 AM 46.9 °F - 46.8 °F 99% 30.06 in 10.0 mi Calm Calm - 0.01 in   Light Drizzle
7:35 AM 47.3 °F - 47.1 °F 99% 30.05 in 10.0 mi Calm Calm - 0.01 in   Overcast
7:55 AM 47.3 °F - 47.1 °F 99% 30.06 in 7.0 mi Calm Calm - 0.01 in   Overcast
8:15 AM 47.5 °F - 47.5 °F 100% 30.05 in 7.0 mi Calm Calm - N/A   Light Drizzle
8:35 AM 47.5 °F - 47.5 °F 100% 30.04 in 5.0 mi Calm Calm - N/A   Overcast
8:55 AM 47.7 °F - 47.7 °F 100% 30.03 in 7.0 mi Calm Calm - N/A   Overcast
9:15 AM 48.2 °F - 48.2 °F 100% 30.03 in 10.0 mi Calm Calm - N/A   Overcast
9:35 AM 48.6 °F - 48.6 °F 100% 30.03 in 7.0 mi Calm Calm - N/A Rain Light Rain
9:55 AM 49.1 °F - 48.7 °F 99% 30.03 in 4.0 mi Calm Calm - 0.02 in Rain Rain
10:15 AM 49.1 °F - 49.1 °F 100% 30.03 in 5.0 mi Calm Calm - 0.02 in Rain Light Rain
10:30 AM 49.3 °F - 49.1 °F 99% 30.01 in 2.0 mi Calm Calm - 0.07 in Rain Rain
10:55 AM 50.5 °F - 50.5 °F 100% 29.99 in 5.0 mi WSW 4.6 mph - 0.11 in Rain Rain
11:15 AM 52.7 °F - 52.7 °F 100% 29.97 in 10.0 mi West 3.5 mph - N/A   Overcast
11:35 AM 53.8 °F - 53.2 °F 98% 29.96 in 10.0 mi WSW 4.6 mph - N/A   Overcast
11:55 AM 53.8 °F - 53.1 °F 97% 29.93 in 7.0 mi WSW 3.5 mph - 0.02 in Rain Light Rain
12:15 PM 54.5 °F - 53.6 °F 97% 29.92 in 5.0 mi WSW 6.9 mph - 0.03 in Rain Light Rain
12:35 PM 55.2 °F - 54.9 °F 99% 29.89 in 10.0 mi Calm Calm - 0.04 in Rain Light Rain
12:55 PM 57.9 °F - 55.2 °F 91% 29.88 in 10.0 mi SW 3.5 mph - 0.04 in   Overcast
1:15 PM 58.1 °F - 54.7 °F 88% 29.86 in 10.0 mi NW 3.5 mph - 0.02 in Rain Light Rain
1:35 PM 58.1 °F - 54.3 °F 87% 29.83 in 10.0 mi NNW 6.9 mph - 0.02 in   Light Drizzle
1:56 PM 57.2 °F - 55.4 °F 94% 29.81 in 10.0 mi Calm Calm - 0.02 in Rain Light Rain
2:15 PM 57.6 °F - 54.7 °F 90% 29.80 in 10.0 mi West 5.8 mph - N/A   Light Drizzle
2:35 PM 57.6 °F - 54.7 °F 90% 29.80 in 5.0 mi NW 6.9 mph - 0.05 in Rain Heavy Rain
3:15 PM 56.7 °F - 55.4 °F 96% 29.76 in 10.0 mi Calm Calm - 0.02 in Rain Light Rain
3:35 PM 56.3 °F - 55.6 °F 97% 29.75 in 7.0 mi SW 3.5 mph - 0.05 in Rain Rain
3:55 PM 55.6 °F - 55.2 °F 99% 29.73 in 5.0 mi Calm Calm - 0.10 in Rain Rain
4:15 PM 56.1 °F - 55.4 °F 97% 29.70 in 10.0 mi East 5.8 mph - 0.02 in Rain Light Rain
4:35 PM 59.0 °F - 54.3 °F 84% 29.69 in 10.0 mi ESE 8.1 mph 18.4 mph 0.02 in Rain Light Rain
4:55 PM 59.4 °F - 53.6 °F 81% 29.68 in 10.0 mi SSE 10.4 mph 23.0 mph 0.03 in Rain Light Rain
5:15 PM 59.5 °F - 52.7 °F 78% 29.71 in 10.0 mi SSE 19.6 mph 26.5 mph N/A Rain Rain
5:35 PM 58.6 °F - 52.9 °F 81% 29.68 in 10.0 mi ESE 9.2 mph 18.4 mph 0.03 in Rain Rain
5:55 PM 58.8 °F - 53.8 °F 83% 29.66 in 7.0 mi SSE 4.6 mph - 0.10 in Rain Rain
6:15 PM 59.5 °F - 54.0 °F 82% 29.68 in 7.0 mi SSE 11.5 mph 20.7 mph 0.05 in Rain Rain
6:35 PM 59.0 °F - 53.4 °F 82% 29.65 in 7.0 mi South 9.2 mph 29.9 mph 0.10 in Rain Rain
6:55 PM 59.9 °F - 52.7 °F 77% 29.64 in 10.0 mi Calm Calm - 0.11 in   Scattered Clouds
7:20 PM 59.9 °F - 52.3 °F 76% 29.65 in 10.0 mi WSW 12.7 mph 17.3 mph N/A   Scattered Clouds
7:35 PM 59.9 °F - 52.3 °F 76% 29.66 in 10.0 mi South 12.7 mph 25.3 mph N/A   Mostly Cloudy
7:55 PM 59.5 °F - 52.7 °F 78% 29.67 in 10.0 mi SW 12.7 mph - N/A   Overcast
8:15 PM 59.4 °F - 53.1 °F 80% 29.67 in 10.0 mi SSW 8.1 mph 16.1 mph N/A   Overcast
8:35 PM 59.4 °F - 52.9 °F 79% 29.67 in 10.0 mi SSW 10.4 mph - N/A   Overcast
8:50 PM 59.4 °F - 52.9 °F 79% 29.67 in 10.0 mi SW 6.9 mph 16.1 mph N/A   Overcast
9:15 PM 59.5 °F - 52.9 °F 79% 29.68 in 10.0 mi SW 10.4 mph 26.5 mph N/A   Overcast
9:35 PM 59.5 °F - 52.9 °F 79% 29.69 in 10.0 mi SW 16.1 mph 23.0 mph N/A Rain Light Rain
9:50 PM 59.4 °F - 52.9 °F 79% 29.70 in 10.0 mi SSW 13.8 mph 24.2 mph N/A Rain Rain
10:15 PM 59.7 °F - 52.3 °F 77% 29.68 in 10.0 mi SW 10.4 mph 25.3 mph N/A   Overcast
10:35 PM 59.9 °F - 52.3 °F 76% 29.69 in 10.0 mi SW 8.1 mph 19.6 mph N/A   Overcast
10:55 PM 59.2 °F - 52.7 °F 79% 29.69 in 10.0 mi WSW 10.4 mph 20.7 mph N/A Rain Light Rain
11:16 PM 57.2 °F - 53.6 °F 88% 29.69 in 10.0 mi WSW 10.4 mph 16.1 mph N/A   Light Drizzle
11:20 PM 58.3 °F - 53.4 °F 84% 29.69 in 10.0 mi WSW 8.1 mph 17.3 mph N/A   Light Drizzle
11:35 PM 57.4 °F - 53.6 °F 87% 29.69 in 10.0 mi WSW 6.9 mph - N/A   Overcast
11:55 PM 57.9 °F - 53.6 °F 86% 29.70 in 10.0 mi West 8.1 mph - N/A   Overcast